| time (UTC) | temp F | wind direction | speed MPH | gust MPH | rain 1hr in | rain 24hr in | rain mn in | humidity % | barometer mb |
| 20260510173511 | 64 | 225 | 1.0 | 3.0 | 0.00 | 0.59 | 0.00 | 62 | 1009.3 |
| 20260510173011 | 64 | 225 | 3.0 | 8.0 | 0.00 | 0.59 | 0.00 | 62 | 1009.4 |
| 20260510172511 | 64 | 247 | 2.0 | 4.0 | 0.00 | 0.59 | 0.00 | 63 | 1009.3 |
| 20260510172011 | 64 | 225 | 2.0 | 4.0 | 0.00 | 0.59 | 0.00 | 62 | 1009.3 |
| 20260510171510 | 64 | 247 | 3.0 | 7.0 | 0.00 | 0.59 | 0.00 | 62 | 1009.3 |
| 20260510171010 | 64 | 225 | 4.0 | 9.0 | 0.00 | 0.59 | 0.00 | 61 | 1009.3 |
| 20260510170510 | 65 | 225 | 6.0 | 8.0 | 0.00 | 0.59 | 0.00 | 61 | 1009.3 |
| 20260510170009 | 65 | 247 | 6.0 | 9.0 | 0.00 | 0.59 | 0.00 | 61 | 1009.3 |
| 20260510165509 | 65 | 225 | 3.0 | 7.0 | 0.00 | 0.59 | 0.00 | 61 | 1009.3 |
| 20260510165009 | 65 | 292 | 4.0 | 6.0 | 0.00 | 0.59 | 0.00 | 60 | 1009.3 |
| 20260510164509 | 65 | 225 | 6.0 | 7.0 | 0.00 | 0.59 | 0.00 | 60 | 1009.4 |
| 20260510164008 | 66 | 292 | 2.0 | 8.0 | 0.00 | 0.59 | 0.00 | 60 | 1009.3 |
| 20260510163508 | 66 | 247 | 5.0 | 8.0 | 0.00 | 0.59 | 0.00 | 60 | 1009.4 |
| 20260510163008 | 66 | 292 | 1.0 | 7.0 | 0.00 | 0.59 | 0.00 | 60 | 1009.4 |
| 20260510162507 | 66 | 247 | 3.0 | 8.0 | 0.00 | 0.59 | 0.00 | 60 | 1009.4 |
| 20260510162007 | 66 | 292 | 4.0 | 5.0 | 0.00 | 0.59 | 0.00 | 59 | 1009.4 |
| 20260510161507 | 66 | 292 | 3.0 | 9.0 | 0.00 | 0.59 | 0.00 | 59 | 1009.4 |
| 20260510161006 | 67 | 247 | 3.0 | 11.0 | 0.00 | 0.59 | 0.00 | 58 | 1009.4 |
| 20260510160506 | 67 | 315 | 3.0 | 10.0 | 0.00 | 0.59 | 0.00 | 58 | 1009.4 |
| 20260510160006 | 67 | 315 | 2.0 | 9.0 | 0.00 | 0.59 | 0.00 | 57 | 1009.4 |
| 20260510155506 | 67 | 292 | 6.0 | 11.0 | 0.00 | 0.59 | 0.00 | 56 | 1009.4 |
| 20260510155005 | 68 | 315 | 6.0 | 11.0 | 0.00 | 0.59 | 0.00 | 55 | 1009.4 |
| 20260510154505 | 68 | 292 | 6.0 | 9.0 | 0.00 | 0.59 | 0.00 | 54 | 1009.4 |
| 20260510154005 | 69 | 292 | 4.0 | 10.0 | 0.00 | 0.59 | 0.00 | 54 | 1009.4 |
| 20260510153504 | 70 | 315 | 4.0 | 14.0 | 0.00 | 0.59 | 0.00 | 52 | 1009.4 |
| 20260510153004 | 71 | 292 | 3.0 | 12.0 | 0.00 | 0.59 | 0.00 | 50 | 1009.4 |
| 20260510152504 | 73 | 292 | 12.0 | 12.0 | 0.00 | 0.59 | 0.00 | 49 | 1009.4 |
| 20260510152004 | 74 | 292 | 8.0 | 10.0 | 0.00 | 0.59 | 0.00 | 47 | 1009.4 |
| 20260510151503 | 75 | 292 | 3.0 | 13.0 | 0.00 | 0.59 | 0.00 | 44 | 1009.4 |
| 20260510151003 | 77 | 292 | 2.0 | 9.0 | 0.00 | 0.59 | 0.00 | 43 | 1009.4 |
| 20260510150503 | 79 | 292 | 3.0 | 7.0 | 0.00 | 0.59 | 0.00 | 42 | 1009.4 |
| 20260510150002 | 80 | 247 | 7.0 | 11.0 | 0.00 | 0.59 | 0.00 | 42 | 1009.4 |
| 20260510145502 | 79 | 292 | 8.0 | 12.0 | 0.00 | 0.59 | 0.00 | 42 | 1009.4 |
| 20260510145002 | 78 | 292 | 5.0 | 9.0 | 0.00 | 0.59 | 0.00 | 43 | 1009.4 |
| 20260510144501 | 78 | 292 | 6.0 | 11.0 | 0.00 | 0.59 | 0.00 | 42 | 1009.4 |
| 20260510144001 | 77 | 292 | 4.0 | 8.0 | 0.00 | 0.59 | 0.00 | 43 | 1009.3 |
| 20260510143501 | 77 | 292 | 4.0 | 9.0 | 0.00 | 0.59 | 0.00 | 42 | 1009.3 |
| 20260510143001 | 76 | 292 | 5.0 | 11.0 | 0.00 | 0.59 | 0.00 | 43 | 1009.3 |
| 20260510142500 | 76 | 247 | 6.0 | 9.0 | 0.00 | 0.59 | 0.00 | 44 | 1009.3 |
| 20260510142000 | 75 | 292 | 5.0 | 8.0 | 0.00 | 0.59 | 0.00 | 45 | 1009.3 |
| 20260510141500 | 74 | 292 | 6.0 | 13.0 | 0.00 | 0.59 | 0.00 | 45 | 1009.4 |
| 20260510140959 | 73 | 292 | 8.0 | 9.0 | 0.00 | 0.59 | 0.00 | 47 | 1009.3 |
| 20260510140459 | 73 | 292 | 2.0 | 10.0 | 0.00 | 0.59 | 0.00 | 45 | 1009.3 |
| 20260510135959 | 73 | 292 | 5.0 | 11.0 | 0.00 | 0.59 | 0.00 | 46 | 1009.3 |
| 20260510135459 | 73 | 292 | 8.0 | 12.0 | 0.00 | 0.59 | 0.00 | 46 | 1009.3 |
| 20260510134958 | 73 | 292 | 12.0 | 12.0 | 0.00 | 0.59 | 0.00 | 47 | 1009.4 |
| 20260510134458 | 73 | 292 | 4.0 | 12.0 | 0.00 | 0.59 | 0.00 | 47 | 1009.3 |
| 20260510133958 | 73 | 292 | 2.0 | 9.0 | 0.00 | 0.59 | 0.00 | 48 | 1009.3 |
| 20260510133457 | 72 | 292 | 4.0 | 9.0 | 0.00 | 0.59 | 0.00 | 48 | 1009.3 |
| 20260510132957 | 73 | 292 | 3.0 | 18.0 | 0.00 | 0.61 | 0.00 | 47 | 1009.2 |
| 20260510132457 | 72 | 292 | 18.0 | 18.0 | 0.00 | 0.61 | 0.00 | 50 | 1009.3 |
| 20260510131957 | 72 | 292 | 2.0 | 8.0 | 0.00 | 0.61 | 0.00 | 50 | 1009.3 |
| 20260510131456 | 72 | 292 | 2.0 | 6.0 | 0.00 | 0.61 | 0.00 | 50 | 1009.3 |
| 20260510130956 | 72 | 315 | 5.0 | 9.0 | 0.00 | 0.61 | 0.00 | 49 | 1009.3 |
| 20260510130456 | 73 | 292 | 2.0 | 9.0 | 0.00 | 0.61 | 0.00 | 48 | 1009.3 |
| 20260510125955 | 73 | 292 | 3.0 | 4.0 | 0.00 | 0.61 | 0.00 | 49 | 1009.3 |
| 20260510125455 | 73 | 292 | 2.0 | 5.0 | 0.00 | 0.61 | 0.00 | 49 | 1009.3 |
| 20260510124955 | 74 | 315 | 4.0 | 9.0 | 0.00 | 0.61 | 0.00 | 48 | 1009.3 |
| 20260510124454 | 74 | 292 | 5.0 | 7.0 | 0.00 | 0.61 | 0.00 | 49 | 1009.2 |
| 20260510123954 | 74 | 292 | 2.0 | 8.0 | 0.00 | 0.61 | 0.00 | 49 | 1009.3 |
| 20260510123454 | 74 | 292 | 2.0 | 8.0 | 0.00 | 0.61 | 0.00 | 49 | 1009.2 |
| 20260510122954 | 74 | 225 | 6.0 | 9.0 | 0.00 | 0.61 | 0.00 | 50 | 1009.2 |
| 20260510122453 | 74 | 292 | 3.0 | 10.0 | 0.00 | 0.61 | 0.00 | 51 | 1009.2 |
| 20260510121953 | 74 | 202 | 10.0 | 10.0 | 0.00 | 0.61 | 0.00 | 51 | 1009.2 |
| 20260510121453 | 73 | 292 | 4.0 | 11.0 | 0.00 | 0.61 | 0.00 | 50 | 1009.2 |
| 20260510120952 | 73 | 247 | 8.0 | 10.0 | 0.00 | 0.61 | 0.00 | 50 | 1009.2 |
| 20260510120452 | 73 | 292 | 4.0 | 8.0 | 0.00 | 0.61 | 0.00 | 50 | 1009.4 |
| 20260510115952 | 73 | 292 | 2.0 | 8.0 | 0.00 | 0.61 | 0.00 | 50 | 1009.4 |
| 20260510115452 | 75 | 337 | 4.0 | 6.0 | 0.00 | 0.61 | 0.00 | 50 | 1009.5 |
| 20260510114951 | 75 | 157 | 0.0 | 12.0 | 0.00 | 0.61 | 0.00 | 51 | 1009.4 |
| 20260510114451 | 75 | 225 | 6.0 | 9.0 | 0.00 | 0.61 | 0.00 | 50 | 1009.7 |
| 20260510113951 | 75 | 202 | 5.0 | 9.0 | 0.00 | 0.61 | 0.00 | 52 | 1009.7 |
| 20260510113450 | 74 | 292 | 6.0 | 8.0 | 0.00 | 0.61 | 0.00 | 51 | 1010.1 |
| 20260510112950 | 74 | 292 | 7.0 | 9.0 | 0.00 | 0.79 | 0.00 | 53 | 1010.2 |
| 20260510112450 | 73 | 292 | 2.0 | 12.0 | 0.00 | 0.79 | 0.00 | 52 | 1010.2 |
| 20260510111949 | 73 | 292 | 4.0 | 6.0 | 0.00 | 0.79 | 0.00 | 53 | 1010.2 |
| 20260510111449 | 73 | 225 | 2.0 | 7.0 | 0.00 | 0.79 | 0.00 | 54 | 1010.3 |
| 20260510110949 | 73 | 292 | 4.0 | 10.0 | 0.00 | 0.79 | 0.00 | 54 | 1010.3 |
| 20260510110449 | 73 | 247 | 5.0 | 8.0 | 0.00 | 0.79 | 0.00 | 52 | 1010.3 |
| 20260510105948 | 73 | 292 | 3.0 | 9.0 | 0.00 | 0.79 | 0.00 | 52 | 1010.5 |
| 20260510105448 | 73 | 292 | 0.0 | 13.0 | 0.00 | 0.79 | 0.00 | 53 | 1010.7 |
| 20260510104948 | 73 | 315 | 5.0 | 7.0 | 0.00 | 0.79 | 0.00 | 54 | 1010.7 |
| 20260510104447 | 74 | 292 | 7.0 | 11.0 | 0.00 | 0.79 | 0.00 | 54 | 1010.8 |
| 20260510103947 | 73 | 292 | 1.0 | 9.0 | 0.00 | 0.79 | 0.00 | 58 | 1010.9 |
| 20260510103447 | 73 | 292 | 0.0 | 10.0 | 0.00 | 0.79 | 0.00 | 58 | 1011.0 |
| 20260510102947 | 72 | 202 | 6.0 | 8.0 | 0.00 | 0.81 | 0.00 | 60 | 1011.0 |
| 20260510102446 | 72 | 292 | 3.0 | 8.0 | 0.00 | 0.81 | 0.00 | 60 | 1011.2 |
| 20260510101946 | 71 | 292 | 2.0 | 15.0 | 0.00 | 0.81 | 0.00 | 61 | 1011.2 |
| 20260510101446 | 71 | 247 | 9.0 | 10.0 | 0.00 | 0.81 | 0.00 | 60 | 1011.2 |
| 20260510100945 | 71 | 292 | 3.0 | 12.0 | 0.00 | 0.81 | 0.00 | 60 | 1011.4 |
| 20260510100445 | 71 | 292 | 5.0 | 12.0 | 0.00 | 0.81 | 0.00 | 61 | 1011.3 |
| 20260510095945 | 70 | 315 | 4.0 | 7.0 | 0.00 | 0.81 | 0.00 | 62 | 1011.3 |
| 20260510095445 | 70 | 292 | 7.0 | 12.0 | 0.00 | 0.81 | 0.00 | 61 | 1011.4 |
| 20260510094944 | 70 | 292 | 6.0 | 10.0 | 0.00 | 0.81 | 0.00 | 63 | 1011.4 |
| 20260510094444 | 69 | 315 | 6.0 | 6.0 | 0.00 | 0.81 | 0.00 | 65 | 1011.5 |
| 20260510093944 | 68 | 292 | 2.0 | 10.0 | 0.00 | 0.81 | 0.00 | 66 | 1011.5 |
| 20260510093443 | 68 | 292 | 2.0 | 6.0 | 0.00 | 0.81 | 0.00 | 66 | 1011.6 |
| 20260510092943 | 68 | 337 | 2.0 | 9.0 | 0.00 | 0.85 | 0.00 | 65 | 1011.7 |
| 20260510092443 | 68 | 292 | 4.0 | 9.0 | 0.00 | 0.85 | 0.00 | 66 | 1011.7 |
| 20260510091942 | 68 | 315 | 2.0 | 8.0 | 0.00 | 0.85 | 0.00 | 68 | 1011.8 |
| 20260510091442 | 68 | 292 | 4.0 | 8.0 | 0.00 | 0.85 | 0.00 | 67 | 1011.9 |
| 20260510090942 | 67 | 292 | 8.0 | 9.0 | 0.00 | 0.85 | 0.00 | 68 | 1011.9 |
| 20260510090442 | 67 | 337 | 0.0 | 6.0 | 0.00 | 0.85 | 0.00 | 68 | 1011.9 |
| 20260510085941 | 66 | 292 | 4.0 | 8.0 | 0.00 | 0.85 | 0.00 | 69 | 1012.0 |
| 20260510085441 | 66 | 292 | 2.0 | 10.0 | 0.00 | 0.85 | 0.00 | 69 | 1012.0 |
| 20260510084941 | 66 | 292 | 2.0 | 9.0 | 0.00 | 0.85 | 0.00 | 69 | 1012.0 |
| 20260510084440 | 66 | 292 | 1.0 | 10.0 | 0.00 | 0.85 | 0.00 | 70 | 1012.1 |
| 20260510083940 | 67 | 292 | 7.0 | 10.0 | 0.00 | 0.85 | 0.00 | 69 | 1012.1 |
| 20260510083440 | 68 | 247 | 4.0 | 12.0 | 0.00 | 0.85 | 0.00 | 69 | 1012.0 |
| 20260510082940 | 67 | 292 | 2.0 | 8.0 | 0.00 | 0.87 | 0.00 | 71 | 1012.1 |
| 20260510082439 | 67 | 292 | 3.0 | 8.0 | 0.00 | 0.87 | 0.00 | 72 | 1012.1 |
| 20260510081939 | 67 | 292 | 0.0 | 10.0 | 0.00 | 0.87 | 0.00 | 73 | 1012.1 |
| 20260510081439 | 66 | 292 | 5.0 | 8.0 | 0.00 | 0.87 | 0.00 | 74 | 1012.1 |
| 20260510080938 | 65 | 292 | 2.0 | 9.0 | 0.00 | 0.87 | 0.00 | 75 | 1012.0 |
| 20260510080438 | 65 | 292 | 1.0 | 5.0 | 0.00 | 0.87 | 0.00 | 76 | 1011.9 |
| 20260510075938 | 65 | 292 | 1.0 | 7.0 | 0.00 | 0.87 | 0.00 | 76 | 1011.9 |
| 20260510075439 | 65 | 292 | 0.0 | 6.0 | 0.00 | 0.87 | 0.00 | 75 | 1012.0 |
| 20260510074937 | 65 | 292 | 4.0 | 9.0 | 0.00 | 0.87 | 0.00 | 75 | 1012.2 |
| 20260510074437 | 66 | 315 | 7.0 | 11.0 | 0.00 | 0.87 | 0.00 | 76 | 1012.1 |
| 20260510073937 | 66 | 292 | 6.0 | 9.0 | 0.00 | 0.87 | 0.00 | 78 | 1012.1 |
| 20260510073436 | 65 | 292 | 4.0 | 7.0 | 0.00 | 0.87 | 0.00 | 81 | 1012.1 |
| 20260510072936 | 64 | 292 | 1.0 | 6.0 | 0.00 | 0.87 | 0.00 | 82 | 1012.1 |
| 20260510072436 | 63 | 292 | 3.0 | 6.0 | 0.00 | 0.87 | 0.00 | 82 | 1012.1 |
| 20260510071935 | 63 | 292 | 0.0 | 6.0 | 0.00 | 0.87 | 0.00 | 83 | 1012.1 |
| 20260510071435 | 62 | 292 | 3.0 | 4.0 | 0.00 | 0.87 | 0.00 | 85 | 1012.1 |
| 20260510070935 | 61 | 315 | 1.0 | 6.0 | 0.00 | 0.87 | 0.00 | 86 | 1012.2 |
| 20260510070435 | 60 | 292 | 2.0 | 6.0 | 0.00 | 0.87 | 0.00 | 86 | 1012.2 |
| 20260510065934 | 60 | 292 | 3.0 | 3.0 | 0.00 | 0.87 | 0.00 | 86 | 1012.1 |
| 20260510065434 | 60 | 292 | 1.0 | 4.0 | 0.00 | 0.87 | 0.00 | 86 | 1012.2 |
| 20260510064934 | 60 | 292 | 0.0 | 5.0 | 0.00 | 0.87 | 0.00 | 87 | 1012.2 |
| 20260510064433 | 60 | 292 | 0.0 | 2.0 | 0.00 | 0.87 | 0.00 | 88 | 1012.1 |
| 20260510063933 | 60 | 292 | 0.0 | 1.0 | 0.00 | 0.87 | 0.00 | 89 | 1012.1 |
| 20260510063433 | 59 | 292 | 0.0 | 2.0 | 0.00 | 0.87 | 0.00 | 90 | 1012.2 |
| 20260510062932 | 59 | 292 | 2.0 | 2.0 | 0.00 | 0.87 | 0.00 | 91 | 1012.2 |
| 20260510062432 | 59 | 292 | 1.0 | 2.0 | 0.00 | 0.87 | 0.00 | 91 | 1012.3 |
| 20260510061932 | 59 | 292 | 0.0 | 3.0 | 0.00 | 0.87 | 0.00 | 92 | 1012.3 |
| 20260510061432 | 58 | 315 | 2.0 | 2.0 | 0.00 | 0.87 | 0.00 | 92 | 1012.3 |
| 20260510060931 | 58 | 315 | 0.0 | 2.0 | 0.00 | 0.87 | 0.00 | 92 | 1012.3 |
| 20260510060431 | 57 | 315 | 0.0 | 2.0 | 0.00 | 0.87 | 0.00 | 92 | 1012.4 |
| 20260510055931 | 57 | 315 | 0.0 | 3.0 | 0.00 | 0.87 | 0.00 | 93 | 1012.3 |
| 20260510055430 | 57 | 315 | 3.0 | 5.0 | 0.00 | 0.87 | 0.00 | 93 | 1012.3 |
| 20260510054930 | 57 | 315 | 5.0 | 5.0 | 0.00 | 0.87 | 0.00 | 93 | 1012.3 |
| 20260510054430 | 57 | 315 | 4.0 | 4.0 | 0.00 | 0.87 | 0.00 | 93 | 1012.4 |
| 20260510053930 | 56 | 292 | 0.0 | 0.0 | 0.00 | 0.87 | 0.00 | 93 | 1012.4 |
| 20260510053429 | 56 | 292 | 0.0 | 2.0 | 0.00 | 0.87 | 0.00 | 93 | 1012.4 |
| 20260510052929 | 55 | 292 | 0.0 | 0.0 | 0.00 | 0.87 | 0.00 | 93 | 1012.5 |
| 20260510052429 | 55 | 292 | 0.0 | 0.0 | 0.00 | 0.87 | 0.00 | 93 | 1012.4 |
| 20260510051928 | 54 | 292 | 0.0 | 2.0 | 0.00 | 0.87 | 0.00 | 92 | 1012.4 |
| 20260510051428 | 54 | 292 | 0.0 | 0.0 | 0.00 | 0.87 | 0.00 | 92 | 1012.4 |
| 20260510050928 | 53 | 292 | 0.0 | 1.0 | 0.00 | 0.87 | 0.00 | 92 | 1012.4 |
| 20260510050428 | 53 | 292 | 0.0 | 0.0 | 0.02 | 0.87 | 0.00 | 92 | 1012.5 |
| 20260510045927 | 53 | 292 | 0.0 | 1.0 | 0.02 | 0.87 | 0.00 | 92 | 1012.5 |
| 20260510045427 | 53 | 292 | 0.0 | 2.0 | 0.02 | 0.87 | 0.00 | 92 | 1012.6 |
| 20260510044927 | 53 | 292 | 1.0 | 2.0 | 0.02 | 0.87 | 0.00 | 92 | 1012.5 |
| 20260510044426 | 53 | 292 | 2.0 | 3.0 | 0.02 | 0.87 | 0.00 | 92 | 1012.5 |
| 20260510043926 | 53 | 292 | 0.0 | 4.0 | 0.02 | 0.87 | 0.00 | 92 | 1012.5 |
| 20260510043426 | 53 | 292 | 1.0 | 1.0 | 0.02 | 0.87 | 0.00 | 92 | 1012.6 |
| 20260510042925 | 52 | 292 | 0.0 | 3.0 | 0.02 | 0.87 | 0.00 | 92 | 1012.6 |
| 20260510042425 | 52 | 292 | 0.0 | 3.0 | 0.04 | 0.87 | 0.00 | 92 | 1012.5 |
| 20260510041925 | 52 | 315 | 0.0 | 2.0 | 0.04 | 0.87 | 0.00 | 92 | 1012.5 |
| 20260510041425 | 52 | 315 | 0.0 | 4.0 | 0.04 | 0.87 | 0.00 | 92 | 1012.5 |
| 20260510040924 | 52 | 315 | 4.0 | 6.0 | 0.04 | 0.87 | 0.00 | 92 | 1012.4 |
| 20260510040424 | 52 | 292 | 5.0 | 5.0 | 0.02 | 0.85 | 0.00 | 92 | 1012.3 |
| 20260510035924 | 52 | 292 | 3.0 | 3.0 | 0.04 | 0.85 | 0.00 | 92 | 1012.3 |
| 20260510035423 | 52 | 292 | 2.0 | 4.0 | 0.04 | 0.85 | 0.00 | 92 | 1012.2 |
| 20260510034923 | 52 | 292 | 2.0 | 4.0 | 0.04 | 0.85 | 0.00 | 92 | 1012.1 |
| 20260510034423 | 52 | 292 | 2.0 | 3.0 | 0.04 | 0.85 | 0.00 | 92 | 1012.2 |
| 20260510033922 | 52 | 292 | 2.0 | 3.0 | 0.04 | 0.85 | 0.00 | 92 | 1012.1 |
| 20260510033422 | 52 | 292 | 2.0 | 2.0 | 0.04 | 0.85 | 0.00 | 92 | 1012.1 |
| 20260510032922 | 52 | 292 | 1.0 | 1.0 | 0.04 | 0.85 | 0.00 | 92 | 1012.0 |
| 20260510032422 | 52 | 292 | 0.0 | 2.0 | 0.02 | 0.83 | 0.00 | 92 | 1012.0 |
| 20260510031921 | 52 | 292 | 0.0 | 1.0 | 0.02 | 0.83 | 0.00 | 92 | 1011.9 |
| 20260510031421 | 52 | 292 | 0.0 | 0.0 | 0.02 | 0.83 | 0.00 | 92 | 1011.8 |
| 20260510030921 | 52 | 292 | 0.0 | 0.0 | 0.04 | 0.83 | 0.00 | 92 | 1011.8 |
| 20260510030420 | 52 | 292 | 0.0 | 0.0 | 0.02 | 0.81 | 0.00 | 92 | 1011.8 |
| 20260510025920 | 52 | 292 | 0.0 | 1.0 | 0.02 | 0.81 | 0.00 | 92 | 1011.8 |
| 20260510025420 | 52 | 292 | 1.0 | 2.0 | 0.04 | 0.81 | 0.00 | 92 | 1011.8 |
| 20260510024920 | 52 | 292 | 1.0 | 2.0 | 0.04 | 0.81 | 0.00 | 92 | 1011.8 |
| 20260510024419 | 52 | 292 | 1.0 | 2.0 | 0.04 | 0.81 | 0.00 | 92 | 1011.8 |
| 20260510023919 | 52 | 292 | 0.0 | 3.0 | 0.04 | 0.81 | 0.00 | 92 | 1011.8 |
| 20260510023419 | 52 | 292 | 0.0 | 3.0 | 0.06 | 0.81 | 0.00 | 92 | 1011.7 |
| 20260510022918 | 52 | 292 | 1.0 | 3.0 | 0.06 | 0.81 | 0.00 | 92 | 1011.7 |
| 20260510022418 | 52 | 292 | 3.0 | 5.0 | 0.08 | 0.81 | 0.00 | 92 | 1011.6 |
| 20260510021918 | 52 | 202 | 0.0 | 5.0 | 0.08 | 0.81 | 0.00 | 92 | 1011.6 |
| 20260510021417 | 52 | 292 | 1.0 | 2.0 | 0.08 | 0.81 | 0.00 | 92 | 1011.8 |
| 20260510020917 | 52 | 292 | 1.0 | 5.0 | 0.08 | 0.79 | 0.00 | 92 | 1011.7 |
| 20260510020417 | 52 | 292 | 1.0 | 6.0 | 0.08 | 0.79 | 0.00 | 92 | 1011.8 |
| 20260510015917 | 52 | 292 | 3.0 | 5.0 | 0.08 | 0.79 | 0.00 | 92 | 1011.8 |
| 20260510015416 | 52 | 292 | 5.0 | 6.0 | 0.06 | 0.77 | 0.00 | 92 | 1011.9 |
| 20260510014916 | 52 | 292 | 4.0 | 5.0 | 0.08 | 0.77 | 0.00 | 92 | 1011.9 |
| 20260510014416 | 52 | 292 | 2.0 | 6.0 | 0.08 | 0.77 | 0.00 | 92 | 1011.8 |
| 20260510013915 | 52 | 292 | 6.0 | 8.0 | 0.06 | 0.75 | 0.00 | 92 | 1011.8 |
| 20260510013415 | 52 | 292 | 3.0 | 7.0 | 0.08 | 0.75 | 0.00 | 92 | 1011.8 |
| 20260510012915 | 52 | 292 | 4.0 | 7.0 | 0.08 | 0.75 | 0.00 | 92 | 1011.8 |
| 20260510012415 | 52 | 292 | 1.0 | 7.0 | 0.06 | 0.73 | 0.00 | 92 | 1011.8 |
| 20260510011914 | 52 | 292 | 3.0 | 6.0 | 0.06 | 0.73 | 0.00 | 92 | 1011.8 |
| 20260510011414 | 52 | 292 | 1.0 | 5.0 | 0.04 | 0.71 | 0.00 | 92 | 1011.7 |
| 20260510010914 | 52 | 292 | 1.0 | 6.0 | 0.04 | 0.71 | 0.00 | 92 | 1011.7 |
| 20260510010413 | 52 | 292 | 3.0 | 7.0 | 0.06 | 0.71 | 0.00 | 92 | 1011.7 |
| 20260510005913 | 52 | 292 | 2.0 | 7.0 | 0.06 | 0.71 | 0.00 | 92 | 1011.7 |
| 20260510005413 | 52 | 292 | 3.0 | 9.0 | 0.06 | 0.71 | 0.00 | 92 | 1011.7 |
| 20260510004912 | 52 | 247 | 9.0 | 10.0 | 0.06 | 0.69 | 0.00 | 92 | 1011.6 |
| 20260510004412 | 52 | 292 | 3.0 | 8.0 | 0.06 | 0.69 | 0.00 | 92 | 1011.6 |
| 20260510003912 | 53 | 315 | 2.0 | 8.0 | 0.04 | 0.67 | 0.00 | 92 | 1011.6 |
| 20260510003412 | 53 | 315 | 4.0 | 6.0 | 0.04 | 0.67 | 0.00 | 92 | 1011.5 |
| 20260510002911 | 53 | 247 | 4.0 | 8.0 | 0.04 | 0.67 | 0.00 | 92 | 1011.5 |
| 20260510002411 | 53 | 292 | 2.0 | 10.0 | 0.04 | 0.67 | 0.00 | 92 | 1011.5 |
| 20260510001911 | 53 | 315 | 3.0 | 8.0 | 0.04 | 0.67 | 0.00 | 92 | 1011.6 |
| 20260510001410 | 53 | 247 | 4.0 | 7.0 | 0.04 | 0.67 | 0.00 | 92 | 1011.5 |
| 20260510000910 | 53 | 315 | 3.0 | 8.0 | 0.04 | 0.65 | 0.00 | 92 | 1011.5 |
| 20260510000411 | 53 | 225 | 4.0 | 5.0 | 0.04 | 0.65 | 0.00 | 92 | 1011.4 |
| 20260509235910 | 53 | 247 | 5.0 | 5.0 | 0.04 | 0.65 | 0.00 | 92 | 1011.4 |
| 20260509235409 | 53 | 292 | 1.0 | 4.0 | 0.04 | 0.65 | 0.00 | 92 | 1011.5 |
| 20260509234909 | 53 | 292 | 1.0 | 4.0 | 0.02 | 0.63 | 0.00 | 92 | 1011.6 |
| 20260509234409 | 53 | 292 | 0.0 | 9.0 | 0.02 | 0.63 | 0.00 | 92 | 1011.6 |
| 20260509233908 | 53 | 315 | 9.0 | 9.0 | 0.02 | 0.63 | 0.00 | 92 | 1011.6 |
| 20260509233408 | 53 | 315 | 2.0 | 7.0 | 0.02 | 0.63 | 0.00 | 92 | 1011.7 |
| 20260509232908 | 53 | 292 | 3.0 | 6.0 | 0.04 | 0.63 | 0.00 | 92 | 1011.7 |
| 20260509232408 | 53 | 292 | 2.0 | 4.0 | 0.06 | 0.63 | 0.00 | 92 | 1011.7 |
| 20260509231907 | 53 | 292 | 1.0 | 4.0 | 0.08 | 0.63 | 0.00 | 92 | 1011.7 |
| 20260509231407 | 53 | 247 | 3.0 | 5.0 | 0.08 | 0.61 | 0.00 | 92 | 1011.7 |
| 20260509230907 | 53 | 315 | 2.0 | 4.0 | 0.10 | 0.61 | 0.00 | 92 | 1011.8 |
| 20260509230406 | 53 | 292 | 0.0 | 3.0 | 0.10 | 0.61 | 0.00 | 92 | 1011.9 |
| 20260509225906 | 53 | 315 | 0.0 | 2.0 | 0.10 | 0.61 | 0.00 | 92 | 1011.9 |
| 20260509225406 | 53 | 315 | 0.0 | 2.0 | 0.12 | 0.61 | 0.00 | 92 | 1011.9 |
| 20260509224905 | 53 | 315 | 2.0 | 3.0 | 0.12 | 0.61 | 0.00 | 92 | 1011.9 |
| 20260509224405 | 53 | 315 | 0.0 | 3.0 | 0.12 | 0.61 | 0.00 | 92 | 1011.9 |
| 20260509223905 | 53 | 315 | 1.0 | 4.0 | 0.12 | 0.61 | 0.00 | 92 | 1011.9 |
| 20260509223405 | 53 | 315 | 1.0 | 3.0 | 0.10 | 0.59 | 0.00 | 92 | 1012.0 |
| 20260509222904 | 53 | 315 | 2.0 | 4.0 | 0.12 | 0.59 | 0.00 | 92 | 1012.0 |
| 20260509222404 | 53 | 292 | 3.0 | 6.0 | 0.08 | 0.55 | 0.00 | 92 | 1012.0 |
| 20260509221904 | 53 | 292 | 2.0 | 6.0 | 0.08 | 0.55 | 0.00 | 92 | 1011.9 |
| 20260509221403 | 53 | 315 | 2.0 | 3.0 | 0.04 | 0.50 | 0.00 | 92 | 1011.9 |
| 20260509220903 | 53 | 315 | 3.0 | 3.0 | 0.06 | 0.50 | 0.00 | 91 | 1011.9 |
| 20260509220403 | 53 | 315 | 1.0 | 4.0 | 0.06 | 0.50 | 0.00 | 91 | 1011.9 |
| 20260509215903 | 53 | 225 | 0.0 | 5.0 | 0.06 | 0.48 | 0.00 | 91 | 1012.0 |
| 20260509215402 | 53 | 202 | 4.0 | 7.0 | 0.06 | 0.48 | 0.00 | 91 | 1012.0 |
| 20260509214902 | 53 | 292 | 0.0 | 2.0 | 0.06 | 0.48 | 0.00 | 91 | 1012.0 |
| 20260509214402 | 53 | 292 | 1.0 | 2.0 | 0.06 | 0.48 | 0.00 | 91 | 1012.0 |
| 20260509213901 | 53 | 292 | 2.0 | 2.0 | 0.06 | 0.48 | 0.00 | 91 | 1011.9 |
| 20260509213401 | 53 | 292 | 2.0 | 3.0 | 0.04 | 0.46 | 0.00 | 91 | 1012.0 |
| 20260509212901 | 53 | 292 | 2.0 | 2.0 | 0.06 | 0.48 | 0.00 | 91 | 1012.0 |
| 20260509212400 | 53 | 292 | 0.0 | 3.0 | 0.06 | 0.48 | 0.00 | 91 | 1012.1 |
| 20260509211900 | 53 | 292 | 0.0 | 4.0 | 0.08 | 0.48 | 0.00 | 91 | 1012.1 |
| 20260509211400 | 53 | 292 | 0.0 | 3.0 | 0.08 | 0.48 | 0.00 | 91 | 1012.0 |
| 20260509210900 | 53 | 292 | 3.0 | 3.0 | 0.06 | 0.46 | 0.00 | 91 | 1012.1 |
| 20260509210359 | 53 | 292 | 2.0 | 5.0 | 0.06 | 0.46 | 0.00 | 91 | 1012.1 |
| 20260509205859 | 53 | 292 | 1.0 | 4.0 | 0.04 | 0.44 | 0.00 | 91 | 1012.0 |
| 20260509205359 | 53 | 292 | 3.0 | 6.0 | 0.06 | 0.44 | 0.00 | 91 | 1012.1 |
| 20260509204858 | 53 | 292 | 0.0 | 6.0 | 0.06 | 0.44 | 0.00 | 91 | 1012.0 |
| 20260509204358 | 53 | 292 | 6.0 | 6.0 | 0.08 | 0.44 | 0.00 | 91 | 1012.1 |
| 20260509203858 | 53 | 292 | 0.0 | 4.0 | 0.08 | 0.44 | 0.00 | 91 | 1012.0 |
| 20260509203358 | 53 | 292 | 1.0 | 4.0 | 0.08 | 0.42 | 0.00 | 91 | 1012.0 |
| 20260509202857 | 54 | 292 | 2.0 | 8.0 | 0.08 | 0.44 | 0.00 | 91 | 1012.0 |
| 20260509202357 | 54 | 292 | 1.0 | 5.0 | 0.08 | 0.44 | 0.00 | 91 | 1012.1 |
| 20260509201857 | 54 | 292 | 3.0 | 10.0 | 0.06 | 0.42 | 0.00 | 91 | 1012.0 |
| 20260509201356 | 54 | 247 | 1.0 | 7.0 | 0.06 | 0.42 | 0.00 | 91 | 1011.9 |
| 20260509200856 | 54 | 225 | 3.0 | 5.0 | 0.06 | 0.42 | 0.00 | 91 | 1011.9 |
| 20260509200356 | 54 | 292 | 0.0 | 4.0 | 0.08 | 0.42 | 0.00 | 91 | 1011.9 |
| 20260509195856 | 54 | 292 | 1.0 | 4.0 | 0.06 | 0.40 | 0.00 | 91 | 1011.9 |
| 20260509195355 | 54 | 315 | 0.0 | 3.0 | 0.08 | 0.40 | 0.00 | 91 | 1011.9 |
| 20260509194855 | 55 | 315 | 0.0 | 2.0 | 0.08 | 0.40 | 0.00 | 91 | 1011.9 |
| 20260509194355 | 55 | 315 | 0.0 | 4.0 | 0.06 | 0.38 | 0.00 | 91 | 1011.9 |
| 20260509193854 | 55 | 0 | 2.0 | 4.0 | 0.06 | 0.38 | 0.00 | 91 | 1011.9 |
| 20260509193354 | 55 | 22 | 2.0 | 6.0 | 0.04 | 0.36 | 0.00 | 90 | 1011.8 |
| 20260509192854 | 55 | 0 | 2.0 | 3.0 | 0.04 | 0.38 | 0.00 | 90 | 1011.8 |
| 20260509192353 | 55 | 0 | 1.0 | 3.0 | 0.04 | 0.38 | 0.00 | 100 | 1011.7 |
| 20260509191853 | 55 | 0 | 1.0 | 3.0 | 0.04 | 0.38 | 0.00 | 91 | 1011.6 |
| 20260509191353 | 56 | 337 | 1.0 | 3.0 | 0.04 | 0.38 | 0.00 | 91 | 1011.7 |
| 20260509190853 | 56 | 0 | 1.0 | 3.0 | 0.04 | 0.38 | 0.00 | 91 | 1011.7 |
| 20260509190352 | 56 | 0 | 1.0 | 4.0 | 0.02 | 0.36 | 0.00 | 91 | 1011.6 |
| 20260509185852 | 56 | 337 | 4.0 | 4.0 | 0.00 | 0.34 | 0.00 | 90 | 1011.7 |
| 20260509185352 | 56 | 337 | 2.0 | 3.0 | 0.00 | 0.34 | 0.00 | 90 | 1011.6 |
| 20260509184851 | 56 | 0 | 1.0 | 5.0 | 0.00 | 0.34 | 0.00 | 90 | 1011.4 |
| 20260509184351 | 56 | 337 | 2.0 | 4.0 | 0.00 | 0.34 | 0.00 | 90 | 1011.5 |
| 20260509183851 | 57 | 292 | 4.0 | 4.0 | 0.00 | 0.34 | 0.00 | 90 | 1011.4 |
| 20260509183351 | 57 | 292 | 2.0 | 2.0 | 0.00 | 0.34 | 0.00 | 90 | 1011.4 |
| 20260509182850 | 57 | 292 | 1.0 | 3.0 | 0.00 | 0.36 | 0.00 | 90 | 1011.3 |
| 20260509182350 | 57 | 292 | 2.0 | 2.0 | 0.00 | 0.36 | 0.00 | 90 | 1011.3 |
| 20260509181850 | 57 | 292 | 1.0 | 4.0 | 0.00 | 0.36 | 0.00 | 90 | 1011.3 |
| 20260509181349 | 57 | 292 | 2.0 | 3.0 | 0.00 | 0.36 | 0.00 | 90 | 1011.3 |
| 20260509180849 | 57 | 292 | 0.0 | 4.0 | 0.00 | 0.36 | 0.00 | 90 | 1011.1 |
| 20260509180349 | 57 | 315 | 3.0 | 3.0 | 0.00 | 0.36 | 0.00 | 90 | 1011.1 |
| 20260509175848 | 57 | 292 | 1.0 | 2.0 | 0.00 | 0.36 | 0.00 | 90 | 1011.0 |
| 20260509175348 | 57 | 292 | 2.0 | 2.0 | 0.00 | 0.36 | 0.00 | 90 | 1011.0 |
| 20260509174848 | 57 | 292 | 2.0 | 2.0 | 0.00 | 0.36 | 0.00 | 90 | 1010.9 |
| 20260509174348 | 57 | 292 | 2.0 | 2.0 | 0.00 | 0.36 | 0.00 | 90 | 1010.8 |
| 20260509173847 | 57 | 315 | 2.0 | 2.0 | 0.00 | 0.36 | 0.00 | 90 | 1010.9 |